Overview Statistics Trail Chart Weather Telemetry Raw packets
 

This is the latest recevied weather packets stored in our database for station/object K4WCH. If no packets are shown the sender has not sent any weather packets the latest 10 day(s).

<< 106 107 108 109 110 111 112 >>
Time Temp. Humidity Pressure Rain* Wind** Luminosity Snow
1787857510 33.89° C 54% 1015.7 hPa 0 mm - 1018 W/m² -
1787857214 33.89° C 53% 1015.7 hPa 0 mm - 976 W/m² -
1787856904 33.89° C 51% 1016 hPa 0 mm - 1008 W/m² -
1787856603 33.89° C 51% 1016 hPa 0 mm - 961 W/m² -
1787856298 33.89° C 53% 1016.1 hPa 0 mm - 963 W/m² -
1787855994 34.44° C 52% 1016 hPa 0 mm - 959 W/m² -
1787855693 33.89° C 55% 1016 hPa 0 mm - 994 W/m² -
1787855388 33.33° C 54% 1016.1 hPa 0 mm - 1058 W/m² -
1787855084 33.33° C 56% 1016.2 hPa 0 mm - 1012 W/m² -
1787854779 33.33° C 58% 1016.2 hPa 0 mm - 241 W/m² -
1787854478 33.33° C 55% 1016.2 hPa 0 mm - 828 W/m² -
1787854173 33.33° C 57% 1016.2 hPa 0 mm - 1045 W/m² -
1787853869 32.78° C 57% 1016.2 hPa 0 mm - 1044 W/m² -
1787853567 32.78° C 59% 1016.4 hPa 0 mm - 371 W/m² -
1787853262 32.78° C 57% 1016.5 hPa 0 mm - 370 W/m² -
1787852962 32.78° C 56% 1016.6 hPa 0 mm - 444 W/m² -
1787852662 32.78° C 56% 1016.9 hPa 0 mm - 1111 W/m² -
1787852361 33.33° C 56% 1016.9 hPa 0 mm - 1085 W/m² -
1787852061 32.78° C 56% 1017 hPa 0 mm - 1054 W/m² -
1787851761 33.33° C 57% 1017 hPa 0 mm - 1016 W/m² -
1787851455 32.78° C 58% 1016.9 hPa 0 mm - 1116 W/m² -
1787851150 32.78° C 61% 1017 hPa 0 mm - 1090 W/m² -
1787850846 32.22° C 59% 1016.9 hPa 0 mm - 301 W/m² -
1787850542 32.22° C 58% 1017 hPa 0 mm - 1077 W/m² -
1787850236 32.78° C 59% 1017.1 hPa 0 mm - 1108 W/m² -

* Rain latest hour (hover to see other rain measurements)
** Current wind speed in m/s (hover to see current wind gust speed)